STARLINK-32048 (60156 NORAD) Tracking and Keplerian Element Data

This shows tracking and keplerian element data for the satellite.

Feedback or suggestion? Click here.




ElementValue
Catalog60156
NameSTARLINK-32048
Epoch Orbit1773
Epoch Day286.46232307
Epoch Year2024
RAAN188.437
Inclination53.1576
Eccentricity0.000143
Argument of Perigee114.6258
Mean Anonmoly245.4895
Mean Motion15.39669389
Decay Rate0.00038573
L11 60156U 24120X 24286.46232307 .00038573 00000+0 96786-3 0 9990
L22 60156 53.1576 188.4370 0001430 114.6258 245.4895 15.39669389 17737



Live tracking and technical data element details for STARLINK-32048 (NORAD 60156). STARLINK-32048 can be tracked NOW for your location showing map with azimuth and elevation plus other details from your city location.







IsCatalogInMostPopularTable: catalog: 60156, numindb: 10
Update: records affected: 1



GetName: 60156 STARLINK-32048

Hit Count: updated at: Thu, 23 Jan 2025 14:32:55 GMT